Location: Arcabell
(42.4308°N, 1.4823°E)
Time: 17:12:37
(UTC+00:00)

FENGYUN 1C DEB - Visible Passes

Search period start: 18 January 2026 00:00
Search period end: 28 January 2026 00:00
Orbit: 838 x 939 km, 98.8° (Epoch: 17 January)

Date Brightness Start Highest point End Pass type
(mag) Time Alt. Az. Time Alt. Az. Time Alt. Az.
18 Jan ? 04:24:11 10° NE 04:28:43 26° E 04:33:15 10° SSE visible
18 Jan ? 06:05:15 10° N 06:10:19 41° WNW 06:15:24 10° SW visible
18 Jan ? 17:39:11 10° SW 17:43:18 20° W 17:47:23 10° NW visible
19 Jan ? 04:23:18 10° NE 04:27:49 26° E 04:32:19 10° SSE visible
19 Jan ? 06:04:19 10° N 06:09:26 42° WNW 06:14:32 10° SW visible
19 Jan ? 17:38:15 10° SW 17:42:24 21° W 17:46:30 10° NW visible
20 Jan ? 04:22:26 10° NE 04:26:54 26° E 04:31:23 10° SSE visible
20 Jan ? 06:03:25 10° N 06:08:31 43° WNW 06:13:39 10° SW visible
20 Jan ? 17:37:19 10° SW 17:41:29 21° W 17:45:37 10° NW visible
21 Jan ? 04:21:32 10° NE 04:25:59 25° E 04:30:26 10° SSE visible
21 Jan ? 06:02:30 10° N 06:07:37 44° WNW 06:12:46 10° SW visible
21 Jan ? 17:36:23 10° SW 17:40:35 21° W 17:44:44 10° NW visible
22 Jan ? 04:20:39 10° NE 04:25:04 25° E 04:29:31 10° SSE visible
22 Jan ? 06:01:35 10° N 06:06:43 44° WNW 06:11:53 10° SW visible
22 Jan ? 17:35:28 10° SW 17:39:40 21° W 17:43:51 10° NW visible
23 Jan ? 04:19:46 10° NE 04:24:10 25° E 04:28:35 10° SSE visible
23 Jan ? 06:00:40 10° N 06:05:49 45° WNW 06:11:00 10° SW visible
23 Jan ? 17:34:32 10° SW 17:38:46 22° W 17:42:58 10° NW visible
24 Jan ? 04:18:52 10° NE 04:23:15 24° E 04:27:39 10° SSE visible
24 Jan ? 05:59:44 10° N 06:04:55 46° WNW 06:10:08 10° SW visible
24 Jan ? 17:33:36 10° SW 17:37:52 22° W 17:42:05 10° NW visible
25 Jan ? 04:17:59 10° NE 04:22:20 24° E 04:26:42 10° SSE visible
25 Jan ? 05:58:49 10° N 06:04:00 46° WNW 06:09:14 10° SW visible
25 Jan ? 17:32:40 10° SW 17:36:56 22° W 17:41:12 10° NW visible
26 Jan ? 04:17:06 10° NE 04:21:25 24° E 04:25:47 10° SE visible
26 Jan ? 05:57:54 10° N 06:03:07 47° WNW 06:08:22 10° SW visible
26 Jan ? 17:31:44 10° SW 17:36:02 23° W 17:40:19 10° NW visible
27 Jan ? 04:16:13 10° NE 04:20:31 23° E 04:24:51 10° SE visible
27 Jan ? 05:56:59 10° N 06:02:12 48° WNW 06:07:30 10° SW visible
27 Jan ? 17:30:48 10° SW 17:35:08 23° W 17:39:26 10° NW visible
